Temperature
17 17 17 17 16 15 14 15 15 16 16 17 17 16 16 16 15 14 13 12 11 10 9 8 8 8 7 7 7 6 6 6 5 5 5 5 4 4 4 3 3 2 2 1
16 16 16 15 16 16 15 15 15 15 15 17 17 16 16 15 15 13 12 11 10 10 9 8 8 7 7 7 6 6 5 5 5 5 4 4 4 3 3 3 2 1 1 0
14 15 15 13 15 15 15 15 15 14 15 15 15 14 14 14 14 13 12 11 10 9 8 8 7 7 7 6 6 5 5 5 5 4 4 3 3 3 2 2 1 0 -0 -0
13 14 12 15 16 16 16 16 16 15 15 15 14 13 13 13 12 12 11 10 9 8 8 7 7 6 6 5 5 5 5 4 4 3 3 3 2 2 1 1 0 -0 -1 -1
12 12 12 15 15 15 15 15 16 15 15 13 12 11 11 11 11 11 10 9 8 8 7 7 6 6 5 5 5 4 4 4 3 3 2 2 2 1 0 -0 -1 -1 -1 -2
11 11 11 15 13 14 14 13 14 14 13 12 11 9 9 10 10 9 9 8 8 7 6 6 5 5 5 5 4 4 3 3 3 2 2 1 1 0 -0 -1 -1 -2 -2 -2
10 10 11 14 12 13 12 12 13 13 13 12 10 9 10 9 9 8 8 7 7 6 6 5 5 5 4 4 4 3 3 2 2 2 1 1 0 -0 -1 -1 -2 -2 -2 -3
10 10 11 11 11 12 12 12 12 12 12 11 10 9 9 8 8 7 7 6 6 6 5 5 4 4 4 4 3 3 2 2 2 1 0 -0 -1 -1 -1 -2 -2 -3 -3 -4
12 11 13 12 12 12 12 12 11 11 11 11 9 8 8 7 7 6 6 6 5 5 5 4 4 4 3 3 2 2 2 1 1 0 -0 -1 -1 -2 -2 -3 -3 -3 -4 -4
12 13 12 12 12 12 11 11 11 10 10 10 9 8 7 7 6 6 5 5 5 4 4 4 3 3 3 2 2 1 1 0 -0 -1 -1 -2 -2 -3 -3 -3 -4 -4 -5 -5
11 12 12 11 11 11 11 10 10 9 9 9 8 7 7 6 6 5 5 4 4 4 3 3 3 2 2 2 1 0 -0 -0 -1 -1 -2 -2 -3 -3 -4 -4 -5 -5 -5 -6
10 12 11 11 11 10 10 9 9 8 8 7 7 7 6 6 5 5 4 4 3 3 3 3 2 2 2 1 0 -1 -1 -1 -2 -2 -3 -3 -4 -4 -4 -5 -5 -6 -6 -6
11 11 11 10 10 9 9 8 8 7 7 6 6 6 5 5 4 4 3 3 3 3 2 2 2 1 1 0 -1 -1 -2 -2 -2 -3 -3 -4 -5 -5 -5 -5 -5 -6 -6 -7
10 10 9 8 8 8 7 7 6 6 6 5 5 5 4 4 3 3 3 3 2 2 2 1 1 1 0 -1 -1 -2 -2 -3 -3 -4 -4 -5 -5 -6 -6 -6 -6 -6 -6 -7
8 8 8 7 7 6 6 6 5 5 4 4 4 4 3 3 3 3 2 2 2 1 1 1 0 0 -0 -1 -2 -2 -3 -3 -4 -4 -5 -5 -6 -6 -6 -7 -7 -7 -7 -7
6 6 6 6 5 5 5 4 4 4 3 3 3 3 3 2 2 2 2 1 1 1 0 0 -0 -0 -1 -2 -2 -3 -3 -4 -5 -5 -6 -6 -6 -7 -7 -7 -7 -8 -8 -8
5 4 4 4 4 4 3 3 3 3 3 3 2 2 2 2 2 2 1 1 0 -0 -0 -0 -1 -1 -2 -2 -3 -4 -4 -5 -6 -6 -6 -7 -7 -7 -7 -7 -8 -8 -8 -8
5 5 4 4 4 3 3 3 2 2 2 2 2 2 2 1 1 1 0 -0 -0 -0 -0 -1 -2 -2 -3 -3 -4 -4 -5 -6 -6 -7 -7 -7 -7 -7 -7 -8 -8 -8 -9 -9
3 3 3 3 3 3 2 2 2 2 2 2 1 1 1 1 0 -0 -1 -1 -1 -1 -1 -2 -3 -3 -3 -4 -5 -5 -6 -7 -7 -7 -7 -7 -7 -7 -8 -8 -8 -9 -9 -10
2 2 2 2 2 2 2 2 1 1 1 1 1 0 0 -0 -1 -1 -1 -2 -1 -2 -2 -3 -4 -4 -4 -5 -6 -6 -7 -7 -7 -8 -8 -8 -8 -8 -8 -9 -9 -9 -10 -10
1 2 2 2 1 1 1 1 1 1 0 0 -0 -0 -1 -1 -1 -2 -2 -2 -2 -3 -4 -4 -5 -5 -6 -6 -7 -7 -7 -8 -8 -8 -8 -8 -8 -9 -9 -9 -10 -10 -10 -10
1 1 1 1 1 1 1 0 0 -0 -0 -1 -1 -1 -1 -2 -2 -2 -2 -3 -3 -4 -5 -5 -6 -6 -7 -7 -7 -8 -8 -8 -9 -9 -9 -9 -9 -10 -10 -10 -10 -11 -11 -11
1 1 1 0 0 0 -0 -0 -1 -1 -1 -1 -1 -2 -2 -2 -3 -3 -4 -4 -5 -5 -6 -6 -7 -7 -7 -8 -8 -8 -9 -9 -9 -9 -10 -10 -10 -10 -11 -11 -11 -11 -11 -11
0 0 -0 -0 -0 -1 -1 -1 -1 -1 -2 -2 -2 -2 -3 -3 -4 -4 -5 -5 -6 -6 -7 -7 -8 -8 -8 -9 -9 -9 -10 -10 -10 -10 -10 -11 -11 -11 -11 -11 -11 -11 -12 -12
-0 -1 -1 -1 -1 -1 -2 -2 -2 -2 -2 -2 -3 -3 -4 -5 -5 -5 -6 -6 -7 -7 -8 -8 -8 -9 -9 -9 -10 -10 -10 -11 -11 -11 -11 -11 -11 -12 -12 -12 -12 -12 -12 -12
-1 -1 -1 -2 -2 -2 -2 -3 -3 -3 -3 -4 -4 -4 -5 -5 -6 -6 -7 -7 -8 -8 -9 -9 -9 -10 -10 -10 -11 -11 -11 -11 -12 -12 -12 -12 -12 -12 -12 -12 -12 -12 -12 -12
-2 -2 -2 -2 -2 -3 -3 -3 -4 -4 -5 -5 -5 -6 -6 -7 -7 -7 -8 -8 -9 -9 -10 -10 -10 -11 -11 -11 -11 -12 -12 -12 -12 -12 -12 -12 -12 -12 -13 -13 -13 -12 -12 -12
Wind_Speed
4 3 3 4 8 11 11 10 8 8 10 7 1 3 6 8 9 9 10 10 10 9 8 8 7 6 5 4 3 2 2 3 5 5 5 6 7 8 8 9 10 10 11 11
4 2 2 5 7 9 12 12 13 13 14 6 3 4 4 5 7 9 10 10 9 9 8 8 7 6 5 3 3 2 3 4 5 6 6 7 8 8 9 9 10 10 11 11
3 3 1 7 11 13 11 10 9 12 9 1 2 3 2 2 4 7 8 9 9 8 7 7 6 5 4 2 1 2 4 5 6 7 7 8 8 9 9 10 10 11 11 11
3 3 7 7 1 3 7 9 10 8 5 2 3 5 4 2 3 6 8 9 8 8 7 6 5 4 3 1 1 3 5 6 7 7 8 8 8 9 10 10 10 10 10 11
3 5 8 7 5 5 4 5 5 5 1 6 8 5 1 3 5 7 8 9 8 7 7 5 4 3 2 2 3 5 6 7 7 7 8 8 9 10 10 10 10 10 10 11
4 5 7 2 2 3 3 5 2 2 4 8 7 2 3 6 9 10 10 8 8 6 5 4 3 3 1 3 4 6 7 7 7 7 8 10 11 11 9 9 10 10 11 10
6 7 7 2 5 5 5 4 2 3 4 7 6 4 6 9 9 9 9 8 7 5 4 3 2 1 2 4 6 7 7 7 8 8 9 10 10 9 10 10 10 10 11 10
7 7 8 7 7 6 4 4 3 3 4 6 7 8 8 8 8 8 7 6 5 4 2 2 1 1 4 6 7 7 7 8 9 9 9 9 10 10 9 9 10 10 11 12
8 7 2 8 5 4 4 3 3 3 4 8 9 8 7 7 7 6 6 5 4 3 1 1 2 3 5 7 7 7 8 9 9 9 9 9 9 10 9 9 9 9 10 11
2 3 6 6 3 4 3 3 3 4 5 7 8 8 8 7 6 5 5 4 3 2 2 3 4 4 5 7 7 8 9 9 9 9 9 9 8 8 8 8 9 9 10 12
5 3 4 5 5 4 4 4 4 4 4 6 8 8 7 6 5 5 4 3 2 2 3 5 5 6 7 7 7 8 9 9 9 8 9 9 9 8 10 9 11 13 11 11
5 3 4 3 4 5 6 5 5 6 5 5 6 7 6 5 4 4 4 3 2 3 4 5 6 7 8 7 7 8 8 8 7 7 8 8 10 11 14 16 23 25 24 23
3 4 5 5 5 5 5 5 6 6 6 6 5 6 5 4 4 3 2 1 3 4 5 6 7 8 8 8 7 8 9 9 8 8 9 9 9 11 13 15 20 22 24 26
5 5 4 4 4 5 5 6 6 6 6 6 5 5 5 4 3 2 1 2 3 5 6 7 8 9 8 8 8 8 9 10 10 8 9 9 10 10 12 14 15 12 15 23
5 4 5 6 7 6 6 7 7 6 6 6 5 5 4 3 1 1 2 3 5 6 7 7 8 9 8 8 8 9 9 8 8 9 9 10 10 11 11 13 14 14 12 13
6 6 7 7 7 7 7 6 6 6 5 5 4 3 2 1 1 3 5 5 6 7 8 8 10 10 9 9 9 8 8 15 15 11 10 10 11 11 12 12 13 13 13 12
8 6 6 7 7 7 6 5 5 5 5 4 3 2 1 1 4 5 6 5 6 7 8 9 10 10 9 8 8 8 8 11 18 14 10 11 12 12 12 12 13 13 12 15
4 5 6 7 7 8 7 6 6 6 4 3 2 0 2 4 5 6 7 7 8 9 10 10 10 9 8 8 8 8 8 9 9 10 11 11 13 12 11 12 13 14 13 14
7 8 9 8 8 8 7 6 5 4 3 1 0 2 4 5 6 7 7 8 9 12 11 10 14 11 9 10 12 8 9 10 11 11 12 16 16 11 11 11 12 12 13 13
9 9 10 9 8 7 6 4 3 1 1 0 2 4 6 7 7 7 8 9 9 10 10 12 11 9 9 9 15 9 9 11 12 13 12 12 12 11 10 11 12 12 12 12
9 9 9 8 6 5 4 3 1 1 2 2 4 6 8 8 8 8 8 11 11 10 11 14 9 7 8 11 16 10 10 11 12 12 12 12 11 11 11 11 12 13 13 13
7 7 7 5 4 3 2 1 1 2 4 5 6 7 8 9 9 9 10 10 11 14 10 7 7 12 16 20 11 10 11 12 12 11 11 11 11 11 12 12 12 13 13 12
6 5 5 4 2 1 2 3 4 5 6 7 8 8 9 9 8 9 12 8 7 14 12 8 15 23 26 16 10 10 11 12 11 11 11 10 10 11 11 12 12 12 12 11
5 4 3 2 1 2 4 6 6 6 7 8 8 9 10 9 9 8 9 14 17 19 11 15 24 26 25 11 9 9 10 10 10 10 10 10 10 10 10 11 12 11 12 13
3 1 0 1 3 4 5 6 6 7 8 7 8 9 8 7 8 9 8 10 16 19 11 16 24 25 15 9 9 9 9 10 12 12 10 10 10 10 10 11 11 12 12 12
1 1 2 3 4 4 4 4 5 6 6 7 7 6 6 6 8 8 9 10 12 18 13 10 11 14 9 9 9 10 10 12 12 10 10 11 11 11 11 11 13 12 12 12
1 2 3 4 4 4 4 4 5 6 6 7 9 8 7 7 8 9 11 10 10 10 10 9 9 9 9 9 10 10 10 10 10 10 10 10 9 9 11 12 12 11 11 12
Wind_Direction
275 97 141 207 202 198 211 227 241 258 270 285 292 177 169 165 162 154 153 155 156 156 153 150 150 150 146 145 150 159 217 261 269 275 282 286 286 286 285 285 284 281 281 279
271 205 218 263 249 229 223 231 245 265 274 294 37 73 98 140 155 162 162 158 154 151 147 149 152 151 145 160 173 183 241 263 271 278 280 280 280 282 283 283 282 281 280 280
246 200 206 255 232 228 227 223 220 244 257 11 67 89 92 105 151 162 157 151 150 148 145 143 143 142 154 172 179 231 259 268 272 273 275 276 279 284 283 283 283 283 282 281
226 178 234 240 129 199 231 245 232 238 246 171 120 98 66 87 148 148 140 139 139 136 134 131 129 137 148 170 234 258 265 271 273 274 276 280 282 282 282 281 282 284 286 287
195 224 262 256 198 171 197 266 245 238 231 106 98 83 62 80 103 122 121 122 122 122 125 128 140 154 165 233 263 271 274 277 278 280 284 286 284 282 282 284 286 287 287 288
191 210 237 238 101 101 119 267 335 114 116 128 123 155 196 121 99 98 99 101 106 109 118 139 157 148 185 259 273 277 278 279 283 285 285 284 281 282 283 285 285 286 286 285
212 225 251 173 153 135 172 227 73 88 127 147 165 170 135 117 106 105 105 108 115 124 140 158 149 154 248 268 272 275 281 286 286 283 281 281 282 282 284 285 285 287 289 289
194 222 243 162 159 187 185 133 119 117 135 140 122 111 114 114 116 118 120 126 132 138 151 161 175 232 266 271 273 281 287 287 285 283 284 288 286 286 285 288 291 291 293 293
196 208 194 159 159 133 117 126 128 132 131 136 136 138 133 133 133 134 138 139 137 143 177 245 253 250 266 273 281 287 288 286 286 288 287 286 287 290 292 289 287 289 290 293
262 191 155 166 147 144 139 131 113 125 135 140 145 145 146 145 144 144 141 140 142 157 245 271 277 278 274 284 289 290 289 290 291 293 292 289 287 286 288 287 287 289 291 294
236 213 149 190 198 175 148 132 123 118 130 145 145 146 148 149 151 148 142 141 155 215 259 273 282 285 284 287 292 292 290 289 291 290 291 293 288 283 287 277 283 293 292 291
213 190 170 157 145 140 145 152 145 136 125 122 134 140 140 144 143 139 145 157 200 249 270 282 290 289 288 288 289 291 292 290 289 289 290 290 292 293 285 286 295 296 296 296
129 81 91 103 98 109 130 135 136 140 142 133 124 126 129 127 126 126 140 197 247 265 276 284 287 287 288 290 292 290 288 289 289 288 290 290 291 295 299 300 296 296 297 299
119 118 128 142 133 120 119 118 116 114 116 118 114 109 106 106 108 122 233 265 276 282 282 283 285 286 291 299 298 291 289 291 292 287 286 289 291 292 295 299 302 298 297 299
156 142 134 124 118 113 114 116 118 119 114 104 102 105 110 117 157 258 278 283 281 278 278 282 286 288 294 294 292 289 289 287 286 284 285 287 289 291 291 292 295 298 299 300
136 122 128 136 139 135 134 136 137 134 126 119 117 121 124 142 262 276 275 271 274 278 281 283 282 283 285 285 286 285 284 289 295 293 290 291 290 290 291 292 294 296 299 302
145 158 162 157 150 144 139 133 129 125 120 120 120 114 104 288 282 278 279 287 286 279 278 278 279 280 280 280 283 284 283 289 294 294 290 290 290 290 290 291 294 296 297 300
142 132 137 140 137 130 120 110 106 108 113 112 104 70 280 279 281 287 292 294 290 284 279 275 275 279 279 282 283 281 282 284 286 287 288 289 289 288 289 291 294 296 298 301
105 101 97 98 105 111 110 107 105 106 113 123 224 277 279 280 279 279 283 286 285 286 284 276 285 287 282 282 291 281 281 285 288 288 288 290 293 289 289 292 294 297 300 302
96 95 93 90 90 99 103 102 98 96 94 184 280 281 280 278 280 283 284 278 270 269 274 282 284 278 278 282 293 285 283 286 288 291 291 290 291 292 293 295 296 298 299 299
99 99 99 98 94 91 94 91 78 315 293 281 270 270 272 277 279 280 281 285 281 273 278 288 288 283 287 292 297 291 289 289 290 291 292 293 293 295 296 297 298 300 300 300
104 101 98 94 88 78 65 42 315 286 283 279 273 272 276 279 279 276 267 271 283 290 293 287 286 293 300 301 296 293 291 291 292 292 292 293 294 296 297 298 299 299 299 298
98 97 93 86 73 12 328 306 283 272 270 270 271 273 273 273 275 281 288 283 284 295 300 288 296 301 303 303 296 293 291 291 293 294 294 294 294 295 297 298 298 299 299 299
93 90 87 69 24 317 294 285 277 268 265 267 265 264 267 276 278 267 268 289 299 299 296 296 303 304 306 302 293 291 290 291 292 292 293 294 294 294 295 297 299 300 299 299
108 114 212 274 278 268 269 280 288 284 277 272 270 268 264 261 273 286 287 291 298 301 297 299 302 304 305 294 292 291 292 290 292 296 295 297 296 296 296 296 297 298 299 299
151 244 257 255 255 264 273 278 277 278 283 287 286 283 282 282 284 290 292 292 291 297 299 295 296 298 296 292 292 293 293 297 297 295 291 291 291 293 296 296 295 297 298 298
251 264 272 279 276 265 264 269 276 282 284 289 294 294 292 294 293 292 293 294 294 293 293 294 294 292 292 292 292 291 291 289 289 289 290 289 290 293 296 296 298 298 297 297
Height
1481 1481 1483 1485 1488 1491 1495 1495 1497 1489 1485 1479 1478 1479 1480 1482 1485 1488 1491 1494 1498 1501 1504 1506 1508 1510 1510 1511 1511 1511 1510 1509 1508 1506 1504 1502 1499 1496 1492 1488 1484 1480 1475 1471
1483 1481 1483 1486 1485 1485 1487 1487 1487 1485 1482 1476 1476 1477 1479 1481 1483 1485 1488 1492 1495 1499 1502 1504 1506 1507 1507 1507 1507 1507 1506 1505 1503 1501 1499 1496 1493 1489 1485 1481 1477 1472 1468 1463
1490 1482 1485 1491 1480 1480 1480 1477 1479 1483 1478 1475 1476 1477 1479 1480 1481 1483 1486 1489 1493 1497 1500 1502 1503 1504 1504 1504 1504 1503 1502 1500 1499 1496 1493 1490 1487 1482 1478 1474 1469 1465 1461 1456
1488 1489 1500 1479 1467 1467 1470 1469 1470 1470 1471 1472 1475 1477 1478 1479 1480 1482 1485 1488 1491 1495 1497 1499 1500 1501 1501 1500 1500 1499 1497 1496 1494 1491 1488 1484 1480 1476 1472 1467 1462 1458 1453 1449
1491 1493 1485 1471 1467 1468 1470 1470 1465 1467 1468 1471 1473 1476 1478 1479 1480 1481 1484 1487 1490 1492 1495 1496 1497 1497 1497 1497 1496 1495 1493 1491 1489 1486 1482 1478 1474 1469 1465 1460 1455 1450 1446 1440
1488 1492 1490 1470 1467 1465 1468 1474 1466 1465 1468 1471 1474 1480 1479 1479 1480 1481 1484 1486 1488 1490 1492 1493 1494 1494 1493 1493 1492 1490 1488 1486 1483 1480 1476 1471 1467 1462 1458 1453 1448 1442 1437 1433
1487 1488 1478 1465 1466 1467 1478 1473 1468 1467 1468 1470 1473 1475 1477 1477 1479 1481 1483 1485 1487 1488 1490 1490 1490 1490 1490 1489 1487 1486 1483 1480 1477 1474 1470 1465 1460 1456 1451 1446 1440 1435 1429 1424
1480 1485 1479 1464 1465 1468 1467 1466 1466 1467 1468 1470 1472 1473 1475 1477 1478 1480 1482 1484 1485 1486 1487 1487 1487 1487 1486 1484 1483 1480 1477 1474 1471 1467 1463 1458 1453 1448 1444 1439 1433 1427 1421 1414
1465 1466 1458 1458 1460 1461 1462 1464 1465 1466 1467 1468 1470 1472 1474 1476 1477 1479 1480 1482 1483 1483 1484 1484 1484 1483 1481 1480 1477 1474 1471 1467 1464 1459 1455 1451 1446 1441 1436 1431 1425 1419 1413 1406
1456 1455 1455 1457 1459 1460 1461 1462 1463 1464 1466 1467 1468 1470 1472 1474 1476 1477 1478 1479 1480 1480 1480 1480 1480 1479 1477 1475 1472 1468 1464 1460 1456 1452 1447 1443 1439 1434 1429 1424 1418 1412 1406 1400
1454 1453 1454 1455 1457 1458 1459 1460 1461 1462 1464 1465 1466 1468 1470 1472 1473 1475 1476 1476 1477 1477 1477 1476 1476 1474 1472 1469 1466 1461 1457 1453 1449 1444 1440 1435 1430 1426 1421 1417 1413 1407 1400 1394
1452 1449 1451 1453 1454 1456 1457 1458 1459 1460 1462 1463 1465 1466 1468 1469 1471 1472 1473 1474 1474 1474 1473 1472 1471 1468 1466 1463 1459 1455 1450 1446 1441 1437 1432 1427 1421 1416 1412 1409 1404 1400 1394 1389
1446 1447 1449 1450 1452 1453 1455 1456 1457 1459 1460 1461 1463 1464 1466 1467 1469 1470 1470 1471 1471 1470 1469 1467 1465 1462 1460 1456 1452 1448 1443 1438 1434 1429 1424 1419 1414 1408 1402 1397 1394 1390 1386 1381
1443 1445 1447 1448 1450 1451 1453 1454 1455 1457 1458 1460 1461 1463 1464 1465 1466 1467 1467 1467 1467 1465 1464 1461 1459 1456 1453 1449 1445 1441 1436 1431 1426 1421 1417 1412 1407 1402 1396 1390 1383 1378 1375 1372
1440 1442 1444 1445 1447 1449 1450 1452 1453 1455 1457 1458 1460 1461 1462 1463 1464 1464 1464 1463 1462 1460 1458 1455 1452 1449 1446 1442 1437 1433 1428 1423 1418 1413 1409 1404 1399 1394 1389 1384 1378 1371 1365 1361
1437 1439 1441 1443 1445 1447 1448 1450 1452 1454 1455 1457 1458 1459 1460 1461 1461 1461 1460 1458 1456 1454 1452 1449 1445 1442 1438 1434 1429 1424 1420 1415 1411 1406 1401 1397 1392 1387 1382 1376 1371 1365 1359 1354
1435 1437 1439 1441 1443 1445 1447 1449 1451 1453 1454 1456 1457 1457 1458 1458 1457 1456 1455 1453 1451 1448 1445 1442 1438 1434 1430 1426 1422 1416 1411 1407 1403 1398 1394 1389 1384 1380 1375 1370 1364 1358 1353 1348
1433 1435 1437 1439 1441 1444 1446 1448 1450 1452 1453 1454 1455 1455 1455 1454 1452 1451 1449 1447 1444 1441 1438 1435 1430 1426 1422 1418 1414 1408 1403 1399 1394 1390 1386 1381 1377 1372 1367 1362 1357 1351 1345 1340
1431 1433 1436 1438 1441 1443 1446 1448 1449 1451 1451 1452 1452 1451 1451 1449 1447 1445 1443 1440 1436 1432 1429 1427 1423 1418 1414 1410 1406 1400 1396 1391 1387 1382 1378 1373 1369 1364 1360 1355 1349 1344 1339 1333
1431 1433 1436 1439 1441 1443 1445 1447 1448 1449 1449 1449 1448 1447 1446 1444 1442 1439 1436 1433 1430 1426 1422 1418 1414 1410 1406 1401 1397 1392 1388 1383 1379 1374 1370 1365 1361 1356 1352 1347 1342 1337 1332 1327
1432 1435 1437 1439 1441 1443 1445 1446 1446 1446 1446 1445 1444 1442 1440 1438 1436 1433 1429 1424 1421 1419 1414 1410 1406 1402 1397 1393 1389 1384 1380 1375 1371 1366 1362 1357 1353 1348 1344 1339 1334 1330 1325 1320
1434 1436 1438 1440 1441 1442 1443 1444 1443 1443 1442 1441 1439 1437 1434 1431 1428 1425 1422 1418 1413 1410 1406 1402 1398 1394 1389 1385 1380 1376 1371 1367 1363 1358 1354 1350 1345 1340 1336 1332 1327 1322 1318 1313
1435 1437 1438 1439 1440 1440 1441 1441 1440 1439 1437 1436 1434 1431 1428 1425 1421 1417 1412 1409 1406 1402 1398 1393 1389 1385 1381 1377 1372 1367 1363 1359 1354 1350 1346 1342 1338 1333 1329 1324 1320 1315 1311 1306
1435 1436 1437 1438 1438 1438 1437 1436 1435 1434 1432 1430 1428 1425 1421 1417 1413 1410 1406 1402 1398 1394 1389 1385 1381 1377 1373 1368 1363 1359 1354 1350 1346 1342 1338 1334 1330 1326 1321 1317 1313 1308 1304 1300
1434 1435 1435 1435 1435 1434 1433 1431 1430 1428 1426 1423 1420 1418 1415 1411 1407 1402 1398 1393 1389 1385 1380 1376 1372 1368 1363 1359 1354 1350 1346 1342 1338 1334 1330 1326 1322 1318 1314 1310 1306 1302 1297 1293
1432 1432 1432 1432 1431 1430 1428 1426 1424 1422 1419 1415 1412 1410 1407 1403 1399 1394 1389 1384 1380 1376 1371 1367 1363 1359 1354 1350 1346 1342 1338 1334 1330 1326 1322 1319 1315 1311 1307 1303 1299 1295 1291 1286
1430 1429 1429 1428 1427 1425 1423 1421 1418 1416 1413 1409 1404 1401 1398 1393 1389 1385 1380 1376 1371 1367 1362 1358 1354 1350 1346 1341 1337 1333 1330 1326 1322 1318 1315 1311 1308 1304 1300 1296 1292 1288 1284 1280